Regional Weather Roundup
Issued by NWS

Home | Current Version | Previous Version | Graphics & Text | Print | Product List | Glossary On
Versions: 1 2 3 4 5 6 7 8 9 10 11 12 13 14 15 16 17 18 19 20 21 22 23 24 25 26 27 28 29 30 31 32 33 34 35 36 37 38 39 40 41 42 43 44 45 46 47 48 49 50
000
ASUS43 KFSD 202302
RWRSD

WEATHER ROUNDUP FOR SOUTH DAKOTA
NATIONAL WEATHER SERVICE SIOUX FALLS SD
600 PM CDT WED AUG 20 2014

NOTE: "FAIR" INDICATES FEW OR NO CLOUDS BELOW 12,000 FEET WITH NO
SIGNIFICANT WEATHER AND/OR OBSTRUCTIONS TO VISIBILITY.


SDZ001>005-009-010-012>017-210000-
NORTHWEST AND NORTH CENTRAL SOUTH DAKOTA

CITY           SKY/WX    TMP DP  RH WIND       PRES   REMARKS
BUFFALO          N/A     79  57  46 N15G25    29.71R
FAITH            N/A     85  62  46 SE17G23   29.67R
MOBRIDGE       PTSUNNY   81  70  69 SE17      29.67R
$$

SDZ012>016-024>037-041>051-057-063-072>074-210000-
SOUTHWEST AND SOUTH CENTRAL SOUTH DAKOTA

CITY           SKY/WX    TMP DP  RH WIND       PRES   REMARKS
RAPID CTY ARPT PTSUNNY   82  57  42 N13       29.74R
PIERRE         SUNNY     88  71  57 SE18G25   29.63F
CUSTER         MOSUNNY   80  44  27 NW8G20    29.91R
PHILIP         MOSUNNY   92  55  28 W9        29.65R
PINE RIDGE     MOSUNNY   89  57  33 NW8       29.74S
WINNER         FAIR      90  66  45 SE10      29.69S
$$

SDZ004>011-016>023-039-040-210000-
NORTHEAST SOUTH DAKOTA

CITY           SKY/WX    TMP DP  RH WIND       PRES   REMARKS
ABERDEEN       CLOUDY    78  67  68 SE14      29.73R
WATERTOWN      CLOUDY    75  68  78 SE7       29.77F
SISSETON         N/A     81  68  64 SE13G21   29.75F
$$

SDZ017-020-022-023-036>040-048>070-210000-
SOUTHEAST SOUTH DAKOTA

CITY           SKY/WX    TMP DP  RH WIND       PRES   REMARKS
SIOUX FALLS    LGT RAIN  74  70  87 SE7       29.78R
HURON          CLOUDY    81  66  60 S9        29.71R
CHAMBERLAIN    SUNNY     82  72  69 SE9       29.69F
MITCHELL       CLOUDY    79  70  74 S12       29.73R
YANKTON        CLOUDY    79  73  83 SE13      29.74S
$$

ABBREVIATIONS USED IN REMARKS
   TC - TEMPERATURE IN CELSIUS
  WCI - WIND CHILL INDEX
   HX - HEAT INDEX
  VSB - VISIBILITY




USA.gov is the U.S. government's official web portal to all federal, state and local government web resources and services.